[[{"header":{"parameterUnit":"m.s-1","parameterCategory":1,"la1":30.2991,"la2":30.254,"lo1":-89.0895,"lo2":-89.0444,"dy":0.0017,"dx":0.0017,"nx":28,"ny":28,"refTime":"2023-10-07T21:00:00:Z","depth":0,"parameterNumber":2,"parameterNumberName":"U-component_of_WINDS"},"data":[0,0,0,0,0,0,0,0,0,0,0,0,0,0,0,0,0,0,0,0,0,0,0,0,0,0,0,0,0,0,0,0,0,0,0,0,0,0,0,0,0,0,0,0,0,0,0,0,0,0,0,0,0,0,0,0,0,0,-2.5864,-2.5864,0,-2.5891,-2.5892,-2.5892,-2.5768,-2.5764,-2.5761,-2.5757,-2.5787,-2.5791,-2.5795,0,0,0,0,0,0,0,0,0,0,0,0,0,-2.5704,-2.5708,-2.5864,-2.5864,-2.5864,-2.5891,-2.5892,-2.5892,-2.5769,-2.5764,-2.576,-2.5756,-2.5786,-2.5791,-2.5796,0,0,0,0,0,0,0,0,0,0,0,0,0,-2.5757,-2.5709,-2.5864,-2.5806,-2.5801,-2.5891,-2.5892,-2.5892,-2.577,-2.5764,-2.5759,-2.5754,-2.5784,-2.579,-2.5796,-2.5943,0,0,-2.5815,-2.5818,0,0,0,0,0,0,0,0,-2.5754,-2.5763,-2.5814,-2.581,-2.5805,-2.5821,-2.5846,-2.5909,-2.5771,-2.5782,-2.5757,-2.5751,-2.5803,-2.5807,-2.5824,-2.5945,-2.5946,-2.5816,-2.582,-2.5822,-2.5824,0,0,0,0,0,0,0,-2.575,-2.5761,-2.5875,-2.5815,-2.5809,-2.5779,-2.578,-2.5857,-2.5822,-2.578,-2.5771,-2.5776,-2.5799,-2.5819,-2.5824,-2.5947,-2.5816,-2.5821,-2.5825,-2.5828,-2.6188,-2.6194,0,0,0,0,0,0,-2.5754,-2.5759,-2.5874,-2.5875,-2.5765,-2.5786,-2.5788,-2.5821,-2.5821,-2.5816,-2.5781,-2.577,-2.581,-2.5817,-2.5825,-2.5997,-2.5822,-2.5828,-2.5832,-2.6183,-2.619,-2.6196,0,0,0,0,0,0,-2.5751,-2.5766,-2.5873,-2.5815,-2.5826,-2.5795,-2.5833,-2.5825,-2.5844,-2.5821,-2.5815,-2.5807,-2.5806,-2.5816,-2.5915,-2.5997,-2.5831,-2.5837,-2.6176,-2.6185,-2.6193,-2.6344,0,0,0,0,0,0,-2.5747,-2.5765,-2.5821,-2.5817,-2.5829,-2.5963,-2.5838,-2.5829,-2.5855,-2.5841,-2.5844,-2.584,-2.5803,-2.5906,-2.5921,-2.6002,-2.5842,-2.6168,-2.618,-2.619,-2.6332,-2.6357,-2.6378,0,0,0,0,0,-2.5742,-2.5863,-2.5825,-2.584,-2.5899,-2.5968,-2.5975,-2.593,-2.5862,-2.5918,-2.5903,-2.584,-2.5984,-2.5917,-2.5933,-2.6017,-2.6163,-2.6177,-2.6189,-2.6321,-2.6352,-2.6378,0,0,0,0,0,0,-2.5879,-2.5862,-2.5819,-2.5942,-2.5958,-2.5947,-2.6016,-2.5964,-2.5999,-2.5985,-2.5928,-2.5929,-2.6038,-2.6037,-2.5962,-2.6159,-2.6062,-2.6079,-2.6157,-2.6186,-2.6209,-2.6208,-2.5847,0,0,0,0,0,-2.5924,-2.5981,-2.5962,-2.6073,-2.6083,-2.6049,-2.6077,-2.604,-2.6054,-2.606,-2.6053,-2.6069,-2.6117,-2.6151,-2.6195,-2.6329,-2.6329,-2.6395,-2.6419,-2.6438,-2.6454,-2.6525,-2.6555,-2.6239,-2.6239,-2.6239,0,0,-2.6017,-2.6014,-2.6054,-2.6101,-2.6108,-2.6169,-2.6055,-2.6124,-2.6169,-2.6071,-2.6164,-2.6159,-2.6172,-2.629,-2.6341,-2.6292,-2.654,-2.6455,-2.647,-2.6476,-2.6542,-2.6572,-2.6599,-2.6248,-2.6247,-2.6245,0,0,-2.6218,-2.6221,-2.6314,-2.6323,-2.6335,-2.6311,-2.6333,-2.633,-2.6323,-2.6415,-2.6342,-2.6394,-2.648,-2.6492,-2.651,-2.6713,-2.6657,-2.6729,-2.6853,-2.6923,-2.6948,-2.6969,-2.7043,-2.707,-2.6745,-2.6745,-2.6745,0,-2.6332,-2.6421,-2.6368,-2.6442,-2.6465,-2.6377,-2.647,-2.6482,-2.6508,-2.6526,-2.647,-2.6575,-2.6578,-2.6697,-2.6747,-2.6763,-2.6787,-2.673,-2.6948,-2.6969,-2.6989,-2.7059,-2.7086,-2.6754,-2.6753,-2.6752,-2.6751,0,-2.6561,-2.6624,-2.6697,-2.6724,-2.6754,-2.6838,-2.6798,-2.6835,-2.6795,-2.6777,-2.6871,-2.6871,-2.6913,-2.6938,-2.69,-2.7052,-2.7021,-2.6958,-2.6859,-2.7029,-2.7093,-2.712,-2.6766,-2.6763,-2.6761,-2.6758,0,0,-2.6853,-2.6847,-2.6876,-2.6886,-2.6892,-2.694,-2.7019,-2.7059,-2.7092,-2.7112,-2.7178,-2.7251,-2.7192,-2.7212,-2.7174,-2.7235,-2.7397,-2.7164,-2.7163,-2.7209,-2.7566,-2.7615,-2.7647,-2.7358,-2.7363,-2.7367,-2.7565,0,-2.7051,-2.7186,-2.7139,-2.7277,-2.7334,-2.725,-2.7318,-2.733,-2.7314,-2.736,-2.7342,-2.7396,-2.7313,-2.7324,-2.7381,-2.7366,-2.7469,-2.735,-2.742,-2.7423,-2.7421,-2.768,-2.7733,-2.792,-2.759,-2.7594,-2.7597,0,-2.7301,-2.733,-2.7474,-2.7469,-2.7491,-2.7554,-2.7587,-2.7631,-2.7642,-2.7626,-2.7648,-2.7596,-2.7673,-2.7573,-2.7678,-2.7599,-2.7623,-2.762,-2.7626,-2.7633,-2.7522,-2.7696,-2.7979,-2.8008,-2.7636,-2.7633,-2.763,0,-2.7501,-2.7576,-2.7672,-2.7683,-2.768,-2.7726,-2.7726,-2.7731,-2.7758,-2.7786,-2.7803,-2.784,-2.7861,-2.7891,-2.7851,-2.7781,-2.7962,-2.7858,-2.7952,-2.7954,-2.7997,-2.7995,-2.829,-2.8009,-2.8009,-2.8008,-2.8008,0,-2.7728,-2.782,-2.7761,-2.7821,-2.792,-2.7865,-2.7965,-2.7956,-2.7961,-2.8016,-2.7945,-2.7999,-2.7941,-2.799,-2.7958,-2.8051,-2.806,-2.805,-2.8041,-2.8058,-2.806,-2.8075,-2.8062,-2.8016,-2.8014,-2.8013,-2.8012,0,-2.797,-2.7935,-2.8033,-2.8021,-2.802,-2.8094,-2.8083,-2.8137,-2.8115,-2.8187,-2.82,-2.8166,-2.8219,-2.8181,-2.8234,-2.8213,-2.8335,-2.8307,-2.8332,-2.8325,-2.8422,-2.8414,-2.8739,-2.8779,-2.8471,-2.8474,-2.8477,0,-2.8119,-2.8187,-2.8182,-2.8214,-2.8219,-2.8271,-2.8298,-2.8245,-2.8276,-2.8292,-2.8344,-2.839,-2.8425,-2.8514,-2.8494,-2.8534,-2.8507,-2.8618,-2.8513,-2.8528,-2.8511,-2.8509,-2.8515,-2.8641,-2.8644,-2.8647,-2.865,0,-2.8388,-2.8366,-2.8407,-2.8442,-2.8476,-2.8501,-2.852,-2.855,-2.8497,-2.8535,-2.8588,-2.8615,-2.8668,-2.8716,-2.8748,-2.8748,-2.8691,-2.8682,-2.8706,-2.8726,-2.8738,-2.8734,-2.8392,-2.8676,-2.8673,-2.8671,-2.867,-2.8669,-2.8588,-2.8645,-2.865,-2.8698,-2.8706,-2.8726,-2.8776,-2.8759,-2.8802,-2.8842,-2.8807,-2.8871,-2.8878,-2.8915,-2.8922,-2.8971,-2.8926,-2.896,-2.897,-2.898,-2.8994,-2.8728,-2.8977,-2.8976,-2.8975,-2.8974,-2.8974,0,-2.8854,-2.8853,-2.8897,-2.8926,-2.8964,-2.8904,-2.8922,-2.8958,-2.9015,-2.9025,-2.9061,-2.9121,-2.9166,-2.9149,-2.9189,-2.9232,-2.9207,-2.9244,-2.9242,-2.9243,-2.9032,-2.9008,-2.9264,-2.9264,-2.9264,-2.9264,-2.9264,-2.9264,-2.8998,-2.909,-2.9069,-2.9165,-2.9162,-2.9224,-2.9239,-2.9256,-2.9265,-2.9336,-2.9373,-2.936,-2.936,-2.9399,-2.9438,-2.9431,-2.945,-2.9498,-2.9483,-2.9286,-2.9258,-2.923,-2.9208,-2.9502,-2.9502,-2.9689,-2.9691,-2.9693]},{"header":{"parameterUnit":"m.s-1","parameterCategory":1,"la1":30.2991,"la2":30.254,"lo1":-89.0895,"lo2":-89.0444,"dy":0.0017,"dx":0.0017,"nx":28,"ny":28,"refTime":"2023-10-07T21:00:00:Z","depth":0,"parameterNumber":3,"parameterNumberName":"V-component_of_WINDS"},"data":[0,0,0,0,0,0,0,0,0,0,0,0,0,0,0,0,0,0,0,0,0,0,0,0,0,0,0,0,0,0,0,0,0,0,0,0,0,0,0,0,0,0,0,0,0,0,0,0,0,0,0,0,0,0,0,0,0,0,-7.1808,-7.1809,0,-7.1895,-7.1896,-7.1897,-7.1754,-7.175,-7.1745,-7.174,-7.1823,-7.1829,-7.1836,0,0,0,0,0,0,0,0,0,0,0,0,0,-7.1513,-7.1519,-7.1808,-7.181,-7.1811,-7.1895,-7.1896,-7.1897,-7.1755,-7.1749,-7.1743,-7.1738,-7.182,-7.1828,-7.1836,0,0,0,0,0,0,0,0,0,0,0,0,0,-7.1624,-7.1521,-7.1808,-7.175,-7.1746,-7.1895,-7.1896,-7.1898,-7.1757,-7.1749,-7.1742,-7.1735,-7.1818,-7.1828,-7.1838,-7.2045,0,0,-7.1868,-7.1873,0,0,0,0,0,0,0,0,-7.1618,-7.1635,-7.1758,-7.1754,-7.175,-7.1807,-7.1822,-7.1947,-7.1758,-7.1752,-7.174,-7.1732,-7.1823,-7.1832,-7.1864,-7.2049,-7.2053,-7.1869,-7.1875,-7.188,-7.1882,0,0,0,0,0,0,0,-7.1611,-7.1631,-7.1842,-7.1759,-7.1755,-7.1717,-7.1725,-7.1845,-7.1827,-7.1752,-7.1742,-7.1755,-7.1819,-7.1855,-7.1865,-7.2054,-7.1869,-7.1878,-7.1884,-7.1888,-7.2412,-7.242,0,0,0,0,0,0,-7.1611,-7.1625,-7.184,-7.1845,-7.1665,-7.1729,-7.1737,-7.1796,-7.1825,-7.1823,-7.1761,-7.1748,-7.1841,-7.1853,-7.1867,-7.2112,-7.188,-7.1889,-7.1895,-7.2404,-7.2414,-7.2422,0,0,0,0,0,0,-7.1605,-7.1632,-7.1836,-7.1733,-7.1756,-7.1741,-7.1808,-7.1801,-7.1836,-7.1832,-7.1827,-7.1801,-7.1836,-7.1853,-7.2002,-7.2113,-7.1894,-7.1903,-7.2395,-7.2407,-7.2418,-7.2603,0,0,0,0,0,0,-7.1597,-7.163,-7.1711,-7.1736,-7.1762,-7.1973,-7.1815,-7.1808,-7.1855,-7.1839,-7.1868,-7.1866,-7.1831,-7.1988,-7.2012,-7.2123,-7.1911,-7.2385,-7.24,-7.2414,-7.2587,-7.262,-7.2648,0,0,0,0,0,-7.1587,-7.1759,-7.1716,-7.1743,-7.1863,-7.1979,-7.1994,-7.1952,-7.1865,-7.1944,-7.1941,-7.1865,-7.2097,-7.2004,-7.2031,-7.2146,-7.2378,-7.2396,-7.2413,-7.2574,-7.2614,-7.2647,0,0,0,0,0,0,-7.1745,-7.1761,-7.1714,-7.1898,-7.1939,-7.1955,-7.2054,-7.1996,-7.2061,-7.2042,-7.1986,-7.1994,-7.2154,-7.2164,-7.2061,-7.2347,-7.2222,-7.2246,-7.2335,-7.2373,-7.2403,-7.2397,-7.1919,0,0,0,0,0,-7.1802,-7.1898,-7.1905,-7.2067,-7.209,-7.2069,-7.2118,-7.2083,-7.2121,-7.2137,-7.2145,-7.2184,-7.2264,-7.2319,-7.2394,-7.2588,-7.2591,-7.268,-7.271,-7.2735,-7.2756,-7.2858,-7.2897,-7.2481,-7.248,-7.248,0,0,-7.1919,-7.194,-7.2003,-7.2099,-7.2126,-7.2225,-7.2084,-7.2194,-7.2266,-7.2153,-7.2295,-7.2302,-7.2341,-7.2514,-7.259,-7.2527,-7.2872,-7.2758,-7.2778,-7.2785,-7.2881,-7.292,-7.2955,-7.2493,-7.249,-7.2488,0,0,-7.2184,-7.2209,-7.2347,-7.2378,-7.2421,-7.2406,-7.2439,-7.2465,-7.2465,-7.2607,-7.2525,-7.2607,-7.2749,-7.278,-7.2814,-7.309,-7.3022,-7.3115,-7.3274,-7.3375,-7.3407,-7.3436,-7.3534,-7.357,-7.3137,-7.3137,-7.3137,0,-7.2324,-7.2471,-7.2424,-7.2541,-7.2585,-7.2489,-7.2627,-7.2657,-7.2723,-7.2754,-7.2683,-7.2858,-7.2878,-7.3056,-7.3123,-7.3155,-7.3189,-7.3112,-7.3407,-7.3435,-7.3461,-7.3554,-7.3591,-7.3148,-7.3147,-7.3146,-7.3145,0,-7.264,-7.2743,-7.2848,-7.2916,-7.2971,-7.3098,-7.3069,-7.313,-7.3089,-7.3081,-7.3226,-7.3246,-7.3323,-7.3362,-7.3323,-7.3535,-7.3494,-7.3417,-7.3289,-7.3513,-7.3599,-7.3634,-7.3164,-7.316,-7.3157,-7.3154,0,0,-7.3006,-7.3047,-7.3087,-7.3116,-7.3157,-7.3234,-7.3355,-7.3432,-7.3485,-7.3533,-7.3631,-7.3753,-7.3681,-7.372,-7.3683,-7.3772,-7.3988,-7.3682,-7.3682,-7.3738,-7.4221,-7.428,-7.4322,-7.3943,-7.3949,-7.3955,-7.4218,0,-7.3269,-7.3481,-7.3442,-7.3647,-7.3741,-7.3651,-7.3755,-7.3791,-7.3786,-7.3863,-7.3856,-7.3943,-7.3842,-7.3865,-7.3948,-7.3944,-7.4084,-7.3924,-7.4033,-7.4037,-7.4026,-7.4367,-7.4429,-7.4676,-7.4251,-7.4257,-7.4261,0,-7.3604,-7.3667,-7.3882,-7.3907,-7.3945,-7.404,-7.4107,-7.4182,-7.4219,-7.4209,-7.4254,-7.42,-7.4317,-7.4189,-7.435,-7.4242,-7.4284,-7.4288,-7.4297,-7.4305,-7.4163,-7.4384,-7.4754,-7.4792,-7.4313,-7.4309,-7.4305,0,-7.385,-7.3987,-7.4133,-7.4161,-7.4194,-7.4264,-7.428,-7.431,-7.4359,-7.4416,-7.4447,-7.4517,-7.4555,-7.4609,-7.4575,-7.4485,-7.4741,-7.461,-7.4735,-7.4736,-7.4793,-7.479,-7.5175,-7.482,-7.482,-7.4819,-7.4818,0,-7.4147,-7.4282,-7.4244,-7.4334,-7.4482,-7.4435,-7.4582,-7.4587,-7.4615,-7.4702,-7.4628,-7.4711,-7.4661,-7.474,-7.4713,-7.4849,-7.4867,-7.4861,-7.4852,-7.4868,-7.4869,-7.4894,-7.4876,-7.4829,-7.4827,-7.4825,-7.4823,0,-7.4446,-7.4427,-7.458,-7.46,-7.4608,-7.4716,-7.4731,-7.4813,-7.4803,-7.4915,-7.4938,-7.4921,-7.501,-7.4981,-7.5076,-7.5058,-7.5231,-7.52,-7.522,-7.5212,-7.5338,-7.5327,-7.5754,-7.5807,-7.5418,-7.5422,-7.5425,0,-7.4638,-7.474,-7.4771,-7.4825,-7.4848,-7.4937,-7.4986,-7.4943,-7.4997,-7.5047,-7.5124,-7.5206,-7.527,-7.5416,-7.541,-7.5482,-7.5452,-7.5597,-7.5462,-7.5474,-7.5454,-7.5448,-7.5458,-7.5623,-7.5628,-7.5632,-7.5635,0,-7.4979,-7.4964,-7.504,-7.5113,-7.5174,-7.5229,-7.5276,-7.5324,-7.5284,-7.5348,-7.5439,-7.5489,-7.5586,-7.5669,-7.5734,-7.5747,-7.5685,-7.5677,-7.5709,-7.5726,-7.5734,-7.5731,-7.5293,-7.5667,-7.5664,-7.5662,-7.566,-7.5659,-7.523,-7.5316,-7.5352,-7.5438,-7.5469,-7.5515,-7.5594,-7.5594,-7.567,-7.5748,-7.5717,-7.5821,-7.5853,-7.5934,-7.5958,-7.6037,-7.5981,-7.6028,-7.604,-7.6053,-7.6069,-7.5721,-7.6048,-7.6047,-7.6047,-7.6046,-7.6045,0,-7.5567,-7.5585,-7.5665,-7.5735,-7.5803,-7.5739,-7.5788,-7.5848,-7.5942,-7.5978,-7.6043,-7.6147,-7.6226,-7.6228,-7.6301,-7.6364,-7.6337,-7.6385,-7.638,-7.6384,-7.6115,-7.6079,-7.6406,-7.6406,-7.6406,-7.6406,-7.6406,-7.6405,-7.575,-7.5893,-7.5882,-7.6039,-7.6055,-7.6159,-7.6192,-7.6233,-7.6262,-7.6383,-7.6449,-7.645,-7.6472,-7.6546,-7.6615,-7.6613,-7.6644,-7.6703,-7.669,-7.6439,-7.6403,-7.6369,-7.6335,-7.671,-7.671,-7.6952,-7.6954,-7.6956]}]]